试验-27F(SHIYAN 27F)

导读 | 星芒AI

SHIYAN 27F 是一颗由中国研制的试验卫星,主要用于开展空间科学与技术试验。该卫星属于中国“试验”系列卫星之一,旨在验证新型卫星平台、通信技术、导航增强系统等关键技术,为未来卫星应用和空间任务提供技术储备。它于2023年成功发射,运行在地球轨道上,具备良好的稳定性和数据传输能力。此次任务进一步推动了中国在卫星技术领域的自主创新与发展。

基本信息
目录编号:
63604
目录名称:
SHIYAN 27F
国际标识:
2025-078F
轨道中心:
EARTH
卫星名称:
试验-27F
卫星全名:
试验-27F(SHIYAN 27F)
卫星状态:
在轨 (已飞行193 天)
发射日期:
2025-04-18 UTC
国别 :
中国 (CN)
星等 :
--
轨道信息
数据来源 国际轨道数据 AOE轨道数据
星历时间 2025-10-28T23:20:22+0800
6小时前
查看轨道信息
2025-10-25T21:00:00+0800
3天前
查看轨道信息
半长轴 7423.945km 7423.949km
偏心率 0.0000675 0.0000647
轨道倾角 99.694° 99.694°
近地点辐角 89.779° 85.815°
升交点赤经 307.329° 304.279°
平近点角 270.343° 267.826°
近地点 1045.308km 1045.333km
远地点 1046.312km 1046.295km
周期 106.099分钟 106.099分钟
每日圈数 13.572213 13.572203
详细信息
使用方式:
暂无
2D轨道图
3D轨道图
轨道高度分析图
轨道倾角分析图
轨道综合分析图
查看轨道综合分析图